GW2737 Weather Reports


time (UTC)temp
C
wind
direction
speed
KPH
gust
KPH
rain 1hr
cm
rain 24hr
cm
rain mn
cm
humidity
%
barometer
mb
20260504173526 22 22 1.6 4.8 0.00 0.00 0.00 48 1010.5
20260504173039 22 0 0.0 4.8 0.00 0.00 0.00 47 1010.6
20260504172524 22 332 1.6 6.4 0.00 0.00 0.00 51 1010.5
20260504172023 22 207 1.6 8.0 0.00 0.00 0.00 50 1010.5
20260504171538 21 271 3.2 8.0 0.00 0.00 0.00 51 1010.6
20260504171024 21 25 1.6 8.0 0.00 0.00 0.00 52 1010.6
20260504170523 21 253 4.8 8.0 0.00 0.00 0.00 51 1010.7
20260504151024 16 0 0.0 3.2 0.00 0.00 0.00 71 1010.9
20260504150524 16 49 0.0 3.2 0.00 0.00 0.00 72 1010.9
20260504141024 11 0 0.0 1.6 0.00 0.00 0.00 87 1010.5
20260504140524 11 0 0.0 1.6 0.00 0.00 0.00 87 1010.5
20260504130525 10 0 0.0 1.6 0.00 0.00 0.00 90 1010.0
20260504110524 11 0 0.0 1.6 0.00 0.00 0.00 88 1010.0
20260504100524 11 0 0.0 0.0 0.00 0.00 0.00 87 1009.8
20260504081542 13 0 0.0 1.6 0.00 0.00 0.00 81 1009.7
20260504081024 13 0 0.0 1.6 0.00 0.00 0.00 81 1009.6
20260504080524 13 46 0.0 1.6 0.00 0.00 0.00 80 1009.6
20260504050525 17 235 0.0 3.2 0.00 0.00 0.00 67 1009.6
20260504045524 17 220 0.0 3.2 0.00 0.00 0.00 67 1009.5
20260504045028 17 165 0.0 3.2 0.00 0.00 0.00 67 1009.6
20260504044539 17 0 0.0 1.6 0.00 0.00 0.00 66 1009.6
20260504044024 18 236 0.0 1.6 0.00 0.00 0.00 66 1009.6
20260504043524 18 236 0.0 1.6 0.00 0.00 0.00 65 1009.6
20260504043043 18 0 0.0 1.6 0.00 0.00 0.00 65 1009.6
20260504042524 18 246 0.0 1.6 0.00 0.00 0.00 64 1009.6
20260504042028 18 285 0.0 1.6 0.00 0.00 0.00 65 1009.6
20260504041541 18 0 0.0 3.2 0.00 0.00 0.00 64 1009.6
20260504041026 19 0 0.0 3.2 0.00 0.00 0.00 63 1009.6
20260504040525 19 151 0.0 3.2 0.00 0.00 0.00 62 1009.7
20260504040040 20 222 0.0 3.2 0.00 0.00 0.00 61 1009.7
20260504035525 20 245 0.0 3.2 0.00 0.00 0.00 59 1009.6
20260504035027 20 284 0.0 3.2 0.00 0.00 0.00 61 1009.5
20260504034542 20 0 0.0 3.2 0.00 0.00 0.00 60 1009.6
20260504034024 21 238 0.0 4.8 0.00 0.00 0.00 60 1009.4
20260504033526 21 232 0.0 4.8 0.00 0.00 0.00 59 1009.5
20260504033041 21 251 1.6 4.8 0.00 0.00 0.00 57 1009.5
20260504032524 22 265 0.0 4.8 0.00 0.00 0.00 56 1009.5
20260504032025 22 287 1.6 4.8 0.00 0.00 0.00 56 1009.4
20260504031536 22 0 0.0 3.2 0.00 0.00 0.00 54 1009.5
20260504031024 23 132 0.0 3.2 0.00 0.00 0.00 53 1009.5
20260504030524 23 144 0.0 3.2 0.00 0.00 0.00 52 1009.6
20260504030048 24 238 1.6 3.2 0.00 0.00 0.00 49 1009.5
20260504025528 24 279 1.6 4.8 0.00 0.00 0.00 48 1009.5
20260504025025 24 0 1.6 4.8 0.00 0.00 0.00 48 1009.4
20260504024539 25 248 1.6 6.4 0.00 0.00 0.00 46 1009.5
20260504024024 25 254 0.0 6.4 0.00 0.00 0.00 45 1009.5
20260504023525 25 246 1.6 6.4 0.00 0.00 0.00 44 1009.5
20260504023037 25 275 1.6 6.4 0.00 0.00 0.00 45 1009.6
20260504022528 25 237 1.6 8.0 0.00 0.00 0.00 44 1009.6
20260504022024 25 209 1.6 8.0 0.00 0.00 0.00 43 1009.6
20260504021546 26 235 1.6 8.0 0.00 0.00 0.00 42 1009.6
20260504021024 26 277 4.8 8.0 0.00 0.00 0.00 42 1009.6
20260504020524 26 229 0.0 6.4 0.00 0.00 0.00 42 1009.6
20260504020054 26 0 0.0 4.8 0.00 0.00 0.00 42 1009.7
20260504015524 27 258 0.0 4.8 0.00 0.00 0.00 41 1009.8
20260504015037 27 281 1.6 4.8 0.00 0.00 0.00 42 1009.8
20260504014547 27 153 1.6 6.4 0.00 0.00 0.00 41 1009.8
20260504014024 27 139 0.0 6.4 0.00 0.00 0.00 42 1009.9
20260504013524 27 274 1.6 6.4 0.00 0.00 0.00 41 1009.9
20260504013041 27 227 1.6 6.4 0.00 0.00 0.00 39 1009.9
20260504012524 27 256 1.6 8.0 0.00 0.00 0.00 41 1009.9
20260504012024 26 284 3.2 8.0 0.00 0.00 0.00 40 1009.9
20260504011537 27 227 3.2 12.9 0.00 0.00 0.00 40 1010.1
20260504011023 27 236 3.2 12.9 0.00 0.00 0.00 39 1010.1
20260504010523 27 233 1.6 9.7 0.00 0.00 0.00 37 1010.1
20260504010038 27 279 0.0 9.7 0.00 0.00 0.00 39 1010.3
20260504005525 27 271 3.2 11.3 0.00 0.00 0.00 37 1010.4
20260504005025 27 267 3.2 12.9 0.00 0.00 0.00 38 1010.4
20260504004537 27 234 3.2 12.9 0.00 0.00 0.00 37 1010.4
20260504004025 27 245 6.4 12.9 0.00 0.00 0.00 36 1010.4
20260504003524 27 238 3.2 12.9 0.00 0.00 0.00 37 1010.5
20260504003037 26 346 3.2 11.3 0.00 0.00 0.00 36 1010.6
20260504002524 27 261 3.2 11.3 0.00 0.00 0.00 35 1010.5
20260504002024 27 245 3.2 12.9 0.00 0.00 0.00 35 1010.6
20260504001539 27 245 3.2 12.9 0.00 0.00 0.00 36 1010.6
20260504001024 27 291 4.8 14.5 0.00 0.00 0.00 38 1010.7
20260504000525 26 248 4.8 14.5 0.00 0.00 0.00 41 1010.7
20260504000047 27 254 3.2 14.5 0.00 0.00 0.00 38 1010.7
20260503235524 27 267 1.6 14.5 0.00 0.00 0.00 40 1010.7
20260503235025 26 271 8.0 14.5 0.00 0.00 0.00 40 1010.8
20260503234540 26 242 4.8 12.9 0.00 0.00 0.00 40 1010.8
20260503234024 26 278 4.8 14.5 0.00 0.00 0.00 39 1011.0
20260503233524 26 235 6.4 14.5 0.00 0.00 0.00 40 1011.0
20260503233037 27 261 3.2 14.5 0.00 0.00 0.00 42 1011.0
20260503232523 26 252 4.8 14.5 0.00 0.00 0.00 43 1011.1
20260503232024 26 271 8.0 14.5 0.00 0.00 0.00 44 1011.1
20260503231537 26 245 6.4 14.5 0.00 0.00 0.00 44 1011.2
20260503231025 27 269 6.4 14.5 0.00 0.00 0.00 43 1011.3
20260503230524 27 232 3.2 16.1 0.00 0.00 0.00 46 1011.2
20260503230037 26 232 6.4 16.1 0.00 0.00 0.00 45 1011.3
20260503225526 26 224 4.8 16.1 0.00 0.00 0.00 46 1011.4
20260503225028 26 225 4.8 16.1 0.00 0.00 0.00 45 1011.5
20260503224539 26 274 6.4 16.1 0.00 0.00 0.00 44 1011.5
20260503224026 26 241 6.4 16.1 0.00 0.00 0.00 42 1011.6
20260503223524 26 330 4.8 12.9 0.00 0.00 0.00 42 1011.7
20260503223041 26 218 3.2 14.5 0.00 0.00 0.00 40 1011.8
20260503222523 26 227 4.8 16.1 0.00 0.00 0.00 39 1011.9
20260503222025 26 249 8.0 16.1 0.00 0.00 0.00 37 1011.9
20260503221539 26 302 6.4 16.1 0.00 0.00 0.00 36 1011.9
20260503221024 26 212 8.0 16.1 0.00 0.00 0.00 34 1012.0
20260503220524 26 13 6.4 16.1 0.00 0.00 0.00 34 1012.1
20260503220039 26 273 4.8 16.1 0.00 0.00 0.00 36 1012.1
20260503215524 26 34 4.8 12.9 0.00 0.00 0.00 38 1012.1
20260503215023 26 261 4.8 11.3 0.00 0.00 0.00 39 1012.1
20260503214542 26 258 4.8 12.9 0.00 0.00 0.00 38 1012.2
20260503214020 26 298 4.8 12.9 0.00 0.00 0.00 39 1012.3
20260503213524 26 242 3.2 14.5 0.00 0.00 0.00 43 1012.3
20260503213038 25 246 4.8 16.1 0.00 0.00 0.00 42 1012.4
20260503212526 25 265 9.7 16.1 0.00 0.00 0.00 41 1012.4
20260503212025 26 296 4.8 14.5 0.00 0.00 0.00 41 1012.5
20260503211548 25 284 6.4 14.5 0.00 0.00 0.00 44 1012.5
20260503211024 25 267 9.7 14.5 0.00 0.00 0.00 43 1012.5
20260503210524 25 254 4.8 12.9 0.00 0.00 0.00 43 1012.7
20260503210040 25 267 3.2 11.3 0.00 0.00 0.00 43 1012.7
20260503205525 25 260 3.2 14.5 0.00 0.00 0.00 45 1012.8
20260503205024 25 298 6.4 14.5 0.00 0.00 0.00 46 1012.8
20260503204542 25 294 4.8 9.7 0.00 0.00 0.00 47 1012.9
20260503204026 25 222 1.6 14.5 0.00 0.00 0.00 47 1013.0
20260503203528 25 268 8.0 14.5 0.00 0.00 0.00 47 1013.1
20260503203046 25 317 3.2 14.5 0.00 0.00 0.00 46 1013.1
20260503202525 25 302 4.8 14.5 0.00 0.00 0.00 47 1013.1
20260503202025 25 257 4.8 14.5 0.00 0.00 0.00 49 1013.2
20260503201538 25 248 4.8 14.5 0.00 0.00 0.00 49 1013.3
20260503201026 25 282 4.8 14.5 0.00 0.00 0.00 49 1013.4
20260503200524 25 259 8.0 14.5 0.00 0.00 0.00 50 1013.3
20260503200052 25 236 6.4 14.5 0.00 0.00 0.00 48 1013.5
20260503195524 25 278 3.2 12.9 0.00 0.00 0.00 49 1013.4
20260503195024 25 332 1.6 12.9 0.00 0.00 0.00 45 1013.5
20260503194537 25 257 1.6 12.9 0.00 0.00 0.00 44 1013.5
20260503194024 25 22 4.8 9.7 0.00 0.00 0.00 42 1013.6
20260503193524 25 346 3.2 11.3 0.00 0.00 0.00 44 1013.6
20260503193052 24 239 3.2 12.9 0.00 0.00 0.00 41 1013.6
20260503192525 24 248 4.8 12.9 0.00 0.00 0.00 40 1013.7
20260503192026 25 266 3.2 11.3 0.00 0.00 0.00 40 1013.7
20260503191544 25 278 1.6 6.4 0.00 0.00 0.00 38 1013.8
20260503191024 25 252 3.2 6.4 0.00 0.00 0.00 42 1013.8
20260503190524 25 274 1.6 6.4 0.00 0.00 0.00 41 1013.7
20260503190039 24 216 3.2 9.7 0.00 0.00 0.00 38 1013.9
20260503185524 24 291 3.2 9.7 0.00 0.00 0.00 39 1013.9
20260503185026 25 276 4.8 9.7 0.00 0.00 0.00 38 1014.0
20260503184546 25 316 1.6 8.0 0.00 0.00 0.00 41 1014.0
20260503184027 23 264 3.2 8.0 0.00 0.00 0.00 39 1014.0
20260503183525 24 241 1.6 6.4 0.00 0.00 0.00 40 1014.1
20260503183042 23 271 0.0 8.0 0.00 0.00 0.00 41 1014.2
20260503182524 23 228 1.6 8.0 0.00 0.00 0.00 40 1014.3
20260503182028 23 330 3.2 6.4 0.00 0.00 0.00 41 1014.2
20260503181550 23 329 1.6 6.4 0.00 0.00 0.00 42 1014.3
20260503181024 23 294 1.6 4.8 0.00 0.00 0.00 41 1014.3
20260503180524 22 78 1.6 4.8 0.00 0.00 0.00 44 1014.4
20260503180048 22 49 1.6 4.8 0.00 0.00 0.00 44 1014.4
20260503175525 22 14 1.6 4.8 0.00 0.00 0.00 43 1014.5
20260503175024 22 10 3.2 4.8 0.00 0.00 0.00 43 1014.5
20260503174546 22 68 0.0 11.3 0.00 0.00 0.00 46 1014.6
20260503174025 21 327 4.8 11.3 0.00 0.00 0.00 44 1014.7